Worthington, MN

3:46 PM CDT on April 24, 2018 (GMT -0500)
Worthington Municipal

Weather History for KOTG - January, 2014

Change the Weather History Date:

Sunday, January 26, 2014

  Actual Average Record
Temperature  
Mean Temperature 16 °F -  
Max Temperature 35 °F 22 °F 60 °F (2002)
Min Temperature -4 °F 8 °F -19 °F (1988)
Degree Days  
Heating Degree Days 50    
Moisture  
Dew Point 13 °F    
Average Humidity 69    
Maximum Humidity 80    
Minimum Humidity 55    
Precipitation  
Precipitation 0.00 in - - ()
Sea Level Pressure  
Sea Level Pressure 29.66 in    
Wind  
Wind Speed 24 mph (NW)    
Max Wind Speed 41 mph    
Max Gust Speed 54 mph    
Visibility 6 miles    
Events      
Averages and records for this station are not official NWS values.
T = Trace of Precipitation, MM = Missing Value Source: NWS Daily Summary

Daily Weather History Graph

Daily Weather History Graph

Search for Another Location

Airport or City:

Astronomy

Jan. 26, 2014 Rise Set
Actual Time 7:44 AM CST 5:25 PM CST
Civil Twilight 7:13 AM CST 5:56 PM CST
Nautical Twilight 6:39 AM CST 6:31 PM CST
Astronomical Twilight 6:05 AM CST 7:05 PM CST
Moon 3:23 AM CST (1/26) 1:14 PM CST (1/26)
Length of Visible Light 10h 42m
Length of Day
9h 40m
Waning Crescent, 23% of the Moon is Illuminated
Jan 26
Waning Crescent
Jan 30
New
Feb 6
First Quarter
Feb 14
Full
Feb 22
Last Quarter

Hourly Weather History & Observations

Time (CST) Temp. Windchill Dew Point Humidity Pressure Visibility Wind Dir Wind Speed Gust Speed Precip Events Conditions
12:15 AM 30.2 °F 19.3 °F 19.4 °F 64% 29.34 in 10.0 mi WSW 15.0 mph - N/A   Mostly Cloudy
12:35 AM 28.4 °F 16.2 °F 19.4 °F 69% 29.33 in 10.0 mi West 17.3 mph - N/A   Scattered Clouds
12:55 AM 32.0 °F 19.5 °F 23.0 °F 69% 29.34 in 10.0 mi WNW 21.9 mph - N/A   Partly Cloudy
1:15 AM 33.8 °F 20.5 °F 24.8 °F 70% 29.35 in 10.0 mi WNW 27.6 mph 36.8 mph N/A   Mostly Cloudy
1:35 AM - - - N/A% 29.36 in 10.0 mi NW 29.9 mph 46.0 mph N/A   Overcast
1:55 AM 35.6 °F 23.0 °F 28.4 °F 75% 29.37 in 10.0 mi NW 27.6 mph 38.0 mph N/A   Overcast
2:15 AM 35.6 °F 23.0 °F 28.4 °F 75% 29.37 in 10.0 mi WNW 27.6 mph 33.4 mph N/A   Overcast
2:35 AM 35.6 °F 23.7 °F 28.4 °F 75% 29.39 in 10.0 mi WNW 24.2 mph 33.4 mph N/A   Overcast
2:55 AM 35.6 °F 24.2 °F 28.4 °F 75% 29.40 in 10.0 mi NW 21.9 mph 25.3 mph N/A   Overcast
3:15 AM - - - N/A% 29.41 in 10.0 mi NW 34.5 mph 44.9 mph N/A   Overcast
3:35 AM - - - N/A% 29.41 in 10.0 mi WNW 38.0 mph 48.3 mph N/A   Overcast
3:55 AM 35.6 °F 22.5 °F 24.8 °F 65% 29.42 in 10.0 mi WNW 29.9 mph 38.0 mph N/A   Overcast
4:15 AM 33.8 °F 20.3 °F 24.8 °F 70% 29.44 in 10.0 mi NW 28.8 mph 36.8 mph N/A   Overcast
4:35 AM - - - N/A% 29.44 in 10.0 mi NW 29.9 mph 43.7 mph N/A   Overcast
4:55 AM 33.8 °F 20.8 °F 24.8 °F 70% 29.45 in 10.0 mi NW 26.5 mph - N/A   Overcast
5:15 AM 32.0 °F 15.8 °F 23.0 °F 69% 29.47 in 10.0 mi WNW 40.3 mph 49.5 mph N/A   Overcast
5:35 AM - - - N/A% 29.49 in 10.0 mi NW 29.9 mph 47.2 mph N/A   Overcast
5:55 AM 30.2 °F 15.9 °F 19.4 °F 64% 29.49 in 10.0 mi NW 26.5 mph 34.5 mph N/A   Overcast
6:15 AM - - - N/A% 29.48 in 10.0 mi NW 33.4 mph 41.4 mph N/A   Overcast
6:35 AM 30.2 °F 15.7 °F 19.4 °F 64% 29.49 in 10.0 mi NW 27.6 mph 34.5 mph N/A   Overcast
6:55 AM 28.4 °F 13.8 °F 19.4 °F 69% 29.51 in 10.0 mi WNW 25.3 mph 33.4 mph N/A   Overcast
7:15 AM 28.4 °F 14.4 °F 19.4 °F 69% 29.49 in 10.0 mi WNW 23.0 mph - N/A   Mostly Cloudy
7:35 AM 28.4 °F 15.1 °F 19.4 °F 69% 29.48 in 10.0 mi NW 20.7 mph 28.8 mph N/A   Clear
7:55 AM - - - N/A% 29.49 in 10.0 mi NW 19.6 mph 33.4 mph N/A   Clear
8:15 AM 26.6 °F 13.4 °F 17.6 °F 69% 29.49 in 10.0 mi WNW 18.4 mph 24.2 mph N/A   Partly Cloudy
8:35 AM 26.6 °F 12.7 °F 17.6 °F 69% 29.49 in 10.0 mi WNW 20.7 mph - N/A   Mostly Cloudy
8:55 AM 26.6 °F 14.3 °F 17.6 °F 69% 29.48 in 10.0 mi WNW 16.1 mph - N/A   Overcast
9:15 AM 26.6 °F 14.7 °F 17.6 °F 69% 29.49 in 10.0 mi WNW 15.0 mph - N/A   Overcast
9:35 AM 26.6 °F 14.7 °F 17.6 °F 69% 29.48 in 10.0 mi WNW 15.0 mph - N/A   Overcast
9:55 AM 26.6 °F 15.2 °F 17.6 °F 69% 29.47 in 10.0 mi WNW 13.8 mph - N/A   Overcast
10:15 AM 26.6 °F 14.3 °F 15.8 °F 64% 29.48 in 10.0 mi NW 16.1 mph - N/A   Overcast
10:35 AM 26.6 °F 15.2 °F 15.8 °F 64% 29.49 in 10.0 mi NNW 13.8 mph - N/A   Overcast
10:55 AM 24.8 °F 10.0 °F 14.0 °F 64% 29.51 in 8.0 mi NNW 21.9 mph 25.3 mph N/A   Overcast
11:15 AM 23.0 °F 8.3 °F 15.8 °F 74% 29.53 in 0.8 mi North 19.6 mph 27.6 mph N/A   Overcast
11:35 AM 21.2 °F 7.3 °F 15.8 °F 80% 29.53 in 1.0 mi North 16.1 mph - N/A   Mostly Cloudy
11:55 AM 21.2 °F 10.1 °F 15.8 °F 80% 29.52 in 1.0 mi NNW 10.4 mph - N/A   Clear
12:15 PM 21.2 °F 9.5 °F 15.8 °F 80% 29.52 in 8.0 mi NNW 11.5 mph - N/A   Clear
12:35 PM 21.2 °F 6.4 °F 15.8 °F 80% 29.53 in 10.0 mi NNW 18.4 mph 23.0 mph N/A   Mostly Cloudy
12:55 PM 21.2 °F 6.0 °F 15.8 °F 80% 29.53 in 5.0 mi NNW 19.6 mph - N/A   Overcast
1:15 PM 21.2 °F 4.2 °F 15.8 °F 80% 29.53 in 6.0 mi NNW 25.3 mph - N/A   Mostly Cloudy
1:35 PM - - - N/A% 29.56 in 0.5 mi NNW 28.8 mph 36.8 mph N/A   Overcast
1:55 PM - - - N/A% 29.59 in 0.2 mi NNW 31.1 mph 41.4 mph N/A   Overcast
2:15 PM - - - N/A% 29.61 in 0.5 mi NNW 33.4 mph 38.0 mph N/A   Mostly Cloudy
2:35 PM - - - N/A% 29.63 in 0.5 mi NNW 28.8 mph 39.1 mph N/A   Unknown
2:55 PM 15.8 °F -2.7 °F 6.8 °F 68% 29.65 in 3.0 mi NNW 24.2 mph 29.9 mph N/A   Clear
3:15 PM - - - N/A% 29.67 in 0.2 mi NW 36.8 mph 43.7 mph N/A   Unknown
3:35 PM - - - N/A% 29.71 in 0.2 mi NW 32.2 mph 43.7 mph N/A   Unknown
3:55 PM - - - N/A% 29.75 in 0.2 mi NNW 31.1 mph 36.8 mph N/A   Unknown
4:15 PM - - - N/A% 29.79 in 0.2 mi NNW 41.4 mph 46.0 mph N/A   Unknown
4:35 PM - - - N/A% 29.82 in 0.2 mi NW 33.4 mph 44.9 mph N/A   Unknown
4:55 PM - - - N/A% 29.85 in 0.2 mi NW 40.3 mph 54.1 mph N/A   Unknown
5:15 PM - - - N/A% 29.87 in 0.2 mi NW 40.3 mph 54.1 mph N/A   Unknown
5:35 PM - - - N/A% 29.88 in 0.2 mi NW 32.2 mph 40.3 mph N/A   Unknown
5:55 PM - - - N/A% 29.90 in 0.5 mi NW 29.9 mph 35.7 mph N/A   Unknown
6:15 PM - - - N/A% 29.92 in 0.5 mi NW 36.8 mph 42.6 mph N/A   Unknown
6:35 PM - - - N/A% 29.94 in 0.5 mi NW 32.2 mph 46.0 mph N/A   Unknown
6:55 PM - - - N/A% 29.96 in 0.8 mi NW 32.2 mph 43.7 mph N/A   Unknown
7:15 PM - - - N/A% 29.98 in 1.5 mi NW 31.1 mph 38.0 mph N/A   Unknown
7:35 PM - - - N/A% 30.00 in 1.2 mi NW 28.8 mph 35.7 mph N/A   Unknown
7:55 PM -0.4 °F -26.7 °F -7.6 °F 72% 30.03 in 1.5 mi NW 31.1 mph 38.0 mph N/A   Unknown
8:15 PM - - - N/A% 30.04 in 1.8 mi NW 32.2 mph 41.4 mph N/A   Unknown
8:35 PM - - - N/A% 30.06 in 1.2 mi NW 32.2 mph 43.7 mph N/A   Unknown
8:55 PM -0.4 °F -25.6 °F -11.2 °F 60% 30.08 in 5.0 mi NW 27.6 mph 34.5 mph N/A   Unknown
9:15 PM - - - N/A% 30.09 in 2.5 mi NW 27.6 mph 42.6 mph N/A   Unknown
9:35 PM - - - N/A% 30.11 in 4.0 mi NNW 25.3 mph 36.8 mph N/A   Unknown
9:55 PM -2.2 °F -24.7 °F -14.8 °F 55% 30.12 in 10.0 mi NW 19.6 mph 27.6 mph N/A   Clear
10:15 PM -2.2 °F -26.2 °F -13.0 °F 60% 30.13 in 10.0 mi NW 23.0 mph 27.6 mph N/A   Clear
10:35 PM -2.2 °F -26.7 °F -13.0 °F 60% 30.14 in 10.0 mi NW 24.2 mph 31.1 mph N/A   Clear
10:55 PM -4.0 °F -25.8 °F -14.8 °F 60% 30.14 in 10.0 mi NW 17.3 mph 24.2 mph N/A   Clear
11:15 PM -4.0 °F -25.8 °F -14.8 °F 60% 30.15 in 10.0 mi NW 17.3 mph - N/A   Clear
11:35 PM -4.0 °F -25.2 °F -14.8 °F 60% 30.17 in 10.0 mi NW 16.1 mph 23.0 mph N/A   Clear
11:55 PM -4.0 °F -23.7 °F -14.8 °F 60% 30.18 in 10.0 mi NW 13.8 mph - N/A   Clear